Time,TemperatureF,DewpointF,PressureIn,WindDirection,WindDirectionDegrees,WindSpeedMPH,WindSpeedGustMPH,Humidity,HourlyPrecipIn,Conditions,Clouds,dailyrainin,SolarRadiationWatts/m^2,SoftwareType,DateUTC
2013-08-17 00:00:00,68.1,63.4,29.95,East,96,6.0,14.0,85,0.00,RA,SCT,0.00,0.0,WeatherDisplay:10.37,2013-08-17 10:00:00,
2013-08-17 00:10:00,68.2,63.2,29.95,East,88,6.0,16.0,84,0.00,CLR,SCT,0.00,0.0,WeatherDisplay:10.37,2013-08-17 10:10:00,
2013-08-17 00:20:00,68.5,62.8,29.95,East,88,10.0,21.0,82,0.00,CLR,SCT,0.00,0.0,WeatherDisplay:10.37,2013-08-17 10:20:00,
2013-08-17 00:30:00,68.7,63.3,29.95,East,91,3.0,16.0,83,0.00,CLR,SCT,0.00,0.0,WeatherDisplay:10.37,2013-08-17 10:30:00,
2013-08-17 00:40:00,68.2,64.1,29.94,ENE,78,6.0,14.0,87,0.00,CLR,SCT,0.00,0.0,WeatherDisplay:10.37,2013-08-17 10:40:00,
2013-08-17 00:50:00,67.9,64.2,29.95,East,90,7.0,15.0,88,0.00,CLR,SCT,0.00,0.0,WeatherDisplay:10.37,2013-08-17 10:50:00,
2013-08-17 01:00:00,67.9,64.2,29.94,East,86,8.0,15.0,88,0.00,CLR,SCT,0.00,0.0,WeatherDisplay:10.37,2013-08-17 11:00:00,
2013-08-17 01:10:00,67.7,63.4,29.94,East,83,8.0,21.0,86,0.00,CLR,SCT,0.00,0.0,WeatherDisplay:10.37,2013-08-17 11:10:00,
2013-08-17 01:20:00,67.8,63.5,29.94,East,88,9.0,18.0,86,0.00,CLR,SCT,0.00,0.0,WeatherDisplay:10.37,2013-08-17 11:20:00,
2013-08-17 01:30:00,67.6,63.3,29.93,East,79,10.0,17.0,86,0.00,CLR,SCT,0.00,0.0,WeatherDisplay:10.37,2013-08-17 11:30:00,
2013-08-17 01:40:00,67.4,63.1,29.93,East,91,8.0,19.0,86,0.00,CLR,SCT,0.00,0.0,WeatherDisplay:10.37,2013-08-17 11:40:00,
2013-08-17 01:50:00,67.5,62.5,29.93,East,85,9.0,20.0,84,0.00,CLR,SCT,0.00,0.0,WeatherDisplay:10.37,2013-08-17 11:50:00,
2013-08-17 02:00:00,67.5,62.8,29.93,East,87,8.0,15.0,85,0.00,CLR,SCT,0.00,0.0,WeatherDisplay:10.37,2013-08-17 12:00:00,
2013-08-17 02:10:00,67.6,61.6,29.93,East,100,10.0,25.0,81,0.00,CLR,SCT,0.00,0.0,WeatherDisplay:10.37,2013-08-17 12:10:00,
2013-08-17 02:20:00,67.8,61.4,29.92,East,96,9.0,18.0,80,0.00,CLR,SCT,0.00,0.0,WeatherDisplay:10.37,2013-08-17 12:20:00,
2013-08-17 02:30:00,67.7,61.3,29.93,East,89,7.0,18.0,80,0.00,CLR,SCT,0.00,0.0,WeatherDisplay:10.37,2013-08-17 12:30:00,
2013-08-17 02:40:00,67.5,60.8,29.92,East,83,7.0,14.0,79,0.00,CLR,SCT,0.00,0.0,WeatherDisplay:10.37,2013-08-17 12:40:00,
2013-08-17 02:50:00,67.1,61.1,29.92,ENE,73,9.0,14.0,81,0.00,CLR,SCT,0.00,0.0,WeatherDisplay:10.37,2013-08-17 12:50:00,
2013-08-17 03:00:00,66.9,61.6,29.92,East,81,10.0,17.0,83,0.00,CLR,SCT,0.00,0.0,WeatherDisplay:10.37,2013-08-17 13:00:00,
2013-08-17 03:10:00,66.9,61.3,29.92,East,84,7.0,21.0,82,0.00,CLR,SCT,0.00,0.0,WeatherDisplay:10.37,2013-08-17 13:10:00,
2013-08-17 03:20:00,67.0,61.0,29.92,East,86,9.0,15.0,81,0.00,CLR,SCT,0.00,0.0,WeatherDisplay:10.37,2013-08-17 13:20:00,
2013-08-17 03:30:00,67.0,60.6,29.92,ENE,76,8.0,16.0,80,0.00,CLR,SCT,0.00,0.0,WeatherDisplay:10.37,2013-08-17 13:30:00,
2013-08-17 03:40:00,66.8,60.1,29.92,East,89,7.0,16.0,79,0.00,CLR,SCT,0.00,0.0,WeatherDisplay:10.37,2013-08-17 13:40:00,
2013-08-17 03:50:00,67.0,60.0,29.92,East,84,10.0,15.0,78,0.00,CLR,SCT,0.00,0.0,WeatherDisplay:10.37,2013-08-17 13:50:00,
2013-08-17 04:00:00,67.2,60.1,29.92,East,90,6.0,16.0,78,0.00,CLR,SCT,0.00,0.0,WeatherDisplay:10.37,2013-08-17 14:00:00,
2013-08-17 04:10:00,67.2,60.8,29.92,East,84,13.0,16.0,80,0.00,CLR,SCT,0.00,0.0,WeatherDisplay:10.37,2013-08-17 14:10:00,
2013-08-17 04:20:00,67.2,60.5,29.92,East,82,7.0,14.0,79,0.00,CLR,SCT,0.00,0.0,WeatherDisplay:10.37,2013-08-17 14:20:00,
2013-08-17 04:30:00,67.4,60.3,29.92,East,84,7.0,16.0,78,0.00,CLR,SCT,0.00,0.0,WeatherDisplay:10.37,2013-08-17 14:30:00,
2013-08-17 04:40:00,67.3,60.2,29.92,East,86,8.0,15.0,78,0.00,CLR,SCT,0.00,0.0,WeatherDisplay:10.37,2013-08-17 14:40:00,
2013-08-17 04:50:00,67.3,59.9,29.92,East,83,9.0,14.0,77,0.00,CLR,SCT,0.00,0.0,WeatherDisplay:10.37,2013-08-17 14:50:00,
2013-08-17 05:00:00,67.5,59.3,29.92,East,91,9.0,18.0,75,0.00,CLR,SCT,0.00,0.0,WeatherDisplay:10.37,2013-08-17 15:00:00,
2013-08-17 05:10:00,67.4,60.0,29.93,ENE,75,6.0,10.0,77,0.00,BKN,SCT,0.00,0.0,WeatherDisplay:10.37,2013-08-17 15:10:00,
2013-08-17 05:20:00,66.7,60.3,29.92,ENE,59,9.0,14.0,80,0.00,BKN,SCT,0.00,0.0,WeatherDisplay:10.37,2013-08-17 15:20:00,
2013-08-17 05:30:00,66.4,60.0,29.93,East,90,3.0,12.0,80,0.00,BKN,SCT,0.00,0.0,WeatherDisplay:10.37,2013-08-17 15:30:00,
2013-08-17 05:40:00,66.7,60.3,29.93,East,81,6.0,13.0,80,0.00,BKN,SCT,0.00,0.0,WeatherDisplay:10.37,2013-08-17 15:40:00,
2013-08-17 05:50:00,66.7,60.0,29.93,East,98,2.0,8.0,79,0.00,BKN,SCT,0.00,0.0,WeatherDisplay:10.37,2013-08-17 15:50:00,
2013-08-17 06:00:00,66.6,60.2,29.93,ENE,68,9.0,16.0,80,0.00,BKN,SCT,0.00,0.0,WeatherDisplay:10.37,2013-08-17 16:00:00,
2013-08-17 06:10:00,66.6,59.9,29.94,East,99,1.0,16.0,79,0.00,FEW,SCT,0.00,0.1,WeatherDisplay:10.37,2013-08-17 16:10:00,
2013-08-17 06:20:00,66.5,60.5,29.93,East,80,7.0,12.0,81,0.00,FEW,SCT,0.00,0.4,WeatherDisplay:10.37,2013-08-17 16:20:00,
2013-08-17 06:30:00,66.7,60.0,29.93,East,89,6.0,13.0,79,0.00,FEW,SCT,0.00,1.0,WeatherDisplay:10.37,2013-08-17 16:30:00,
2013-08-17 06:40:00,66.8,59.0,29.94,ESE,104,3.0,12.0,76,0.00,FEW,SCT,0.00,2.2,WeatherDisplay:10.37,2013-08-17 16:40:00,
2013-08-17 06:50:00,66.9,60.2,29.94,ENE,72,6.0,12.0,79,0.00,FEW,SCT,0.00,26.4,WeatherDisplay:10.37,2013-08-17 16:50:00,
2013-08-17 07:00:00,67.4,61.4,29.94,East,99,2.0,14.0,81,0.00,FEW,SCT,0.00,8.4,WeatherDisplay:10.37,2013-08-17 17:00:00,
2013-08-17 07:10:00,67.8,61.4,29.95,SE,126,1.0,13.0,80,0.00,FEW,SCT,0.00,8.0,WeatherDisplay:10.37,2013-08-17 17:10:00,
2013-08-17 07:20:00,68.1,61.7,29.95,SE,137,0.0,5.0,80,0.00,FEW,SCT,0.00,47.5,WeatherDisplay:10.37,2013-08-17 17:20:00,
2013-08-17 07:30:00,68.7,62.6,29.95,East,87,0.0,7.0,81,0.00,FEW,SCT,0.00,36.1,WeatherDisplay:10.37,2013-08-17 17:30:00,
2013-08-17 07:40:00,69.3,63.5,29.96,East,101,1.0,4.0,82,0.00,FEW,SCT,0.00,100.7,WeatherDisplay:10.37,2013-08-17 17:40:00,
2013-08-17 07:50:00,70.1,62.5,29.96,ESE,108,3.0,9.0,77,0.00,FEW,SCT,0.00,116.2,WeatherDisplay:10.37,2013-08-17 17:50:00,
2013-08-17 08:00:00,71.0,63.4,29.96,ESE,103,2.0,14.0,77,0.00,FEW,SCT,0.00,136.3,WeatherDisplay:10.37,2013-08-17 18:00:00,
2013-08-17 08:10:00,72.6,62.3,29.96,ESE,103,8.0,13.0,70,0.00,FEW,SCT,0.00,156.7,WeatherDisplay:10.37,2013-08-17 18:10:00,
2013-08-17 08:20:00,73.3,63.7,29.96,East,79,9.0,16.0,72,0.00,FEW,SCT,0.00,179.0,WeatherDisplay:10.37,2013-08-17 18:20:00,
2013-08-17 08:30:00,73.2,63.3,29.96,East,83,9.0,18.0,71,0.00,FEW,SCT,0.00,200.6,WeatherDisplay:10.37,2013-08-17 18:30:00,
2013-08-17 08:40:00,74.3,64.3,29.96,East,90,6.0,14.0,71,0.00,FEW,SCT,0.00,222.9,WeatherDisplay:10.37,2013-08-17 18:40:00,
2013-08-17 08:50:00,75.1,64.6,29.96,East,79,9.0,15.0,70,0.00,FEW,SCT,0.00,249.2,WeatherDisplay:10.37,2013-08-17 18:50:00,
2013-08-17 09:00:00,75.1,64.6,29.96,ENE,78,10.0,20.0,70,0.00,FEW,SCT,0.00,271.6,WeatherDisplay:10.37,2013-08-17 19:00:00,
2013-08-17 09:10:00,75.7,65.2,29.96,ENE,77,8.0,18.0,70,0.00,FEW,SCT,0.00,300.1,WeatherDisplay:10.37,2013-08-17 19:10:00,
2013-08-17 09:20:00,76.7,65.3,29.96,East,97,6.0,18.0,68,0.00,FEW,SCT,0.00,321.6,WeatherDisplay:10.37,2013-08-17 19:20:00,
2013-08-17 09:30:00,77.7,65.4,29.95,East,83,9.0,17.0,66,0.00,FEW,SCT,0.00,349.2,WeatherDisplay:10.37,2013-08-17 19:30:00,
2013-08-17 09:40:00,77.5,64.4,29.95,ENE,78,13.0,20.0,64,0.00,FEW,SCT,0.00,363.5,WeatherDisplay:10.37,2013-08-17 19:40:00,
2013-08-17 09:50:00,77.9,65.6,29.95,East,87,12.0,24.0,66,0.00,FEW,SCT,0.00,387.7,WeatherDisplay:10.37,2013-08-17 19:50:00,
2013-08-17 10:00:00,78.2,65.4,29.94,East,95,9.0,24.0,65,0.00,FEW,SCT,0.00,447.4,WeatherDisplay:10.37,2013-08-17 20:00:00,
2013-08-17 10:10:00,78.4,66.1,29.94,East,85,8.0,17.0,66,0.00,FEW,SCT,0.00,813.9,WeatherDisplay:10.37,2013-08-17 20:10:00,
2013-08-17 10:20:00,78.5,65.3,29.94,East,88,9.0,20.0,64,0.00,FEW,SCT,0.00,1060.3,WeatherDisplay:10.37,2013-08-17 20:20:00,
2013-08-17 10:30:00,79.1,65.9,29.94,East,86,10.0,20.0,64,0.00,FEW,SCT,0.00,1061.6,WeatherDisplay:10.37,2013-08-17 20:30:00,
2013-08-17 10:40:00,79.4,66.2,29.93,East,92,9.0,17.0,64,0.00,FEW,SCT,0.00,1176.5,WeatherDisplay:10.37,2013-08-17 20:40:00,
2013-08-17 10:50:00,79.8,65.6,29.93,East,95,10.0,20.0,62,0.00,FEW,SCT,0.00,1271.3,WeatherDisplay:10.37,2013-08-17 20:50:00,
2013-08-17 11:00:00,79.7,64.1,29.93,East,92,12.0,20.0,59,0.00,FEW,SCT,0.00,1313.9,WeatherDisplay:10.37,2013-08-17 21:00:00,
2013-08-17 11:10:00,80.2,64.6,29.93,East,97,10.0,18.0,59,0.00,FEW,SCT,0.00,1375.3,WeatherDisplay:10.37,2013-08-17 21:10:00,
2013-08-17 11:20:00,80.6,62.9,29.93,East,100,7.0,20.0,55,0.00,FEW,SCT,0.00,1359.1,WeatherDisplay:10.37,2013-08-17 21:20:00,
2013-08-17 11:30:00,81.2,64.0,29.92,East,93,13.0,20.0,56,0.00,FEW,SCT,0.00,715.8,WeatherDisplay:10.37,2013-08-17 21:30:00,
2013-08-17 11:40:00,81.2,64.0,29.92,East,91,12.0,20.0,56,0.00,FEW,SCT,0.00,648.0,WeatherDisplay:10.37,2013-08-17 21:40:00,
2013-08-17 11:50:00,81.4,65.2,29.92,East,86,9.0,22.0,58,0.00,FEW,SCT,0.00,619.1,WeatherDisplay:10.37,2013-08-17 21:50:00,
2013-08-17 12:00:00,81.1,65.9,29.92,East,86,14.0,22.0,60,0.00,FEW,SCT,0.00,607.9,WeatherDisplay:10.37,2013-08-17 22:00:00,
2013-08-17 12:10:00,80.2,65.1,29.91,East,81,15.0,23.0,60,0.00,FEW,SCT,0.00,628.0,WeatherDisplay:10.37,2013-08-17 22:10:00,
2013-08-17 12:20:00,80.3,65.6,29.91,East,82,14.0,21.0,61,0.00,FEW,SCT,0.00,645.4,WeatherDisplay:10.37,2013-08-17 22:20:00,
2013-08-17 12:30:00,80.5,66.3,29.91,East,84,12.0,20.0,62,0.00,FEW,SCT,0.00,657.5,WeatherDisplay:10.37,2013-08-17 22:30:00,
2013-08-17 12:40:00,80.7,66.4,29.91,East,81,12.0,26.0,62,0.00,FEW,SCT,0.00,660.4,WeatherDisplay:10.37,2013-08-17 22:40:00,
2013-08-17 12:50:00,80.7,66.4,29.90,ENE,73,12.0,20.0,62,0.00,FEW,SCT,0.00,656.6,WeatherDisplay:10.37,2013-08-17 22:50:00,
2013-08-17 13:01:00,80.9,66.7,29.90,East,89,10.0,20.0,62,0.00,FEW,SCT,0.00,639.1,WeatherDisplay:10.37,2013-08-17 23:01:00,
2013-08-17 13:10:00,80.7,66.5,29.90,East,87,12.0,21.0,62,0.00,FEW,SCT,0.00,614.4,WeatherDisplay:10.37,2013-08-17 23:10:00,
2013-08-17 13:20:00,80.7,67.4,29.89,ENE,73,9.0,18.0,64,0.00,FEW,SCT,0.00,588.1,WeatherDisplay:10.37,2013-08-17 23:20:00,
2013-08-17 13:30:00,80.7,67.4,29.89,East,82,9.0,24.0,64,0.00,FEW,SCT,0.00,563.6,WeatherDisplay:10.37,2013-08-17 23:30:00,
2013-08-17 13:40:00,80.9,67.1,29.88,ENE,73,13.0,23.0,63,0.00,FEW,SCT,0.00,548.0,WeatherDisplay:10.37,2013-08-17 23:40:00,
2013-08-17 13:50:00,80.7,65.5,29.88,East,83,15.0,23.0,60,0.00,FEW,SCT,0.00,550.3,WeatherDisplay:10.37,2013-08-17 23:50:00,
2013-08-17 14:00:00,80.7,67.4,29.88,East,82,14.0,21.0,64,0.00,FEW,SCT,0.00,716.8,WeatherDisplay:10.37,2013-08-18 00:00:00,
2013-08-17 14:10:00,80.2,66.9,29.87,ENE,77,13.0,24.0,64,0.00,FEW,SCT,0.00,696.7,WeatherDisplay:10.37,2013-08-18 00:10:00,
2013-08-17 14:20:00,80.5,67.2,29.87,East,82,14.0,25.0,64,0.00,FEW,SCT,0.00,816.8,WeatherDisplay:10.37,2013-08-18 00:20:00,
2013-08-17 14:30:00,80.3,66.6,29.87,East,80,9.0,21.0,63,0.00,FEW,SCT,0.00,1184.4,WeatherDisplay:10.37,2013-08-18 00:30:00,
2013-08-17 14:40:00,80.5,65.8,29.87,East,83,13.0,20.0,61,0.00,FEW,SCT,0.00,1091.9,WeatherDisplay:10.37,2013-08-18 00:40:00,
2013-08-17 14:50:00,80.8,66.1,29.86,East,83,14.0,21.0,61,0.00,FEW,SCT,0.00,999.4,WeatherDisplay:10.37,2013-08-18 00:50:00,
2013-08-17 15:01:00,81.5,66.7,29.86,East,84,8.0,16.0,61,0.00,FEW,SCT,0.00,686.0,WeatherDisplay:10.37,2013-08-18 01:01:00,
2013-08-17 15:10:00,80.8,66.1,29.86,ENE,78,12.0,24.0,61,0.00,FEW,SCT,0.00,420.0,WeatherDisplay:10.37,2013-08-18 01:10:00,
2013-08-17 15:20:00,80.6,65.4,29.86,East,83,12.0,20.0,60,0.00,FEW,SCT,0.00,378.9,WeatherDisplay:10.37,2013-08-18 01:20:00,
2013-08-17 15:30:00,80.3,65.1,29.86,East,96,13.0,21.0,60,0.00,FEW,SCT,0.00,343.9,WeatherDisplay:10.37,2013-08-18 01:30:00,
2013-08-17 15:40:00,80.4,66.1,29.86,East,88,13.0,28.0,62,0.00,FEW,SCT,0.00,313.2,WeatherDisplay:10.37,2013-08-18 01:40:00,
2013-08-17 15:50:00,80.9,66.7,29.86,East,79,10.0,21.0,62,0.00,FEW,SCT,0.00,287.1,WeatherDisplay:10.37,2013-08-18 01:50:00,
2013-08-17 16:00:00,80.6,65.4,29.86,East,93,13.0,21.0,60,0.00,FEW,SCT,0.00,266.0,WeatherDisplay:10.37,2013-08-18 02:00:00,
2013-08-17 16:10:00,80.0,64.4,29.86,ENE,78,12.0,22.0,59,0.00,FEW,SCT,0.00,240.9,WeatherDisplay:10.37,2013-08-18 02:10:00,
2013-08-17 16:20:00,79.5,64.4,29.86,East,90,9.0,23.0,60,0.00,FEW,SCT,0.00,217.1,WeatherDisplay:10.37,2013-08-18 02:20:00,
2013-08-17 16:30:00,79.2,64.1,29.86,East,84,9.0,29.0,60,0.00,FEW,SCT,0.00,195.6,WeatherDisplay:10.37,2013-08-18 02:30:00,
2013-08-17 16:40:00,78.9,64.3,29.86,East,84,8.0,30.0,61,0.00,FEW,SCT,0.00,175.9,WeatherDisplay:10.37,2013-08-18 02:40:00,
2013-08-17 16:50:00,79.1,64.0,29.86,East,90,8.0,20.0,60,0.00,FEW,SCT,0.00,158.4,WeatherDisplay:10.37,2013-08-18 02:50:00,
2013-08-17 17:01:00,79.1,65.4,29.86,East,87,10.0,24.0,63,0.00,FEW,SCT,0.00,140.9,WeatherDisplay:10.37,2013-08-18 03:01:00,
2013-08-17 17:10:00,79.0,66.7,29.87,East,80,7.0,16.0,66,0.00,FEW,SCT,0.00,119.7,WeatherDisplay:10.37,2013-08-18 03:10:00,
2013-08-17 17:20:00,77.8,65.6,29.87,East,92,14.0,20.0,66,0.00,FEW,SCT,0.00,100.9,WeatherDisplay:10.37,2013-08-18 03:20:00,
2013-08-17 17:30:00,77.1,65.7,29.87,East,84,13.0,20.0,68,0.00,FEW,SCT,0.00,81.4,WeatherDisplay:10.37,2013-08-18 03:30:00,
2013-08-17 17:40:00,76.4,65.5,29.88,East,86,10.0,24.0,69,0.00,FEW,SCT,0.00,65.6,WeatherDisplay:10.37,2013-08-18 03:40:00,
2013-08-17 17:50:00,76.0,64.6,29.88,East,83,7.0,16.0,68,0.00,FEW,SCT,0.00,49.9,WeatherDisplay:10.37,2013-08-18 03:50:00,
2013-08-17 18:01:00,75.8,62.7,29.88,East,84,13.0,22.0,64,0.00,FEW,SCT,0.00,36.1,WeatherDisplay:10.37,2013-08-18 04:01:00,
2013-08-17 18:10:00,75.2,65.6,29.89,ENE,78,7.0,17.0,72,0.00,CLR,SCT,0.00,25.0,WeatherDisplay:10.37,2013-08-18 04:10:00,
2013-08-17 18:20:00,74.0,66.0,29.89,ENE,70,9.0,17.0,76,0.00,CLR,SCT,0.00,11.5,WeatherDisplay:10.37,2013-08-18 04:20:00,
2013-08-17 18:30:00,72.9,65.2,29.89,ENE,73,12.0,17.0,77,0.00,CLR,SCT,0.00,8.5,WeatherDisplay:10.37,2013-08-18 04:30:00,
2013-08-17 18:40:00,72.0,64.8,29.89,East,83,10.0,26.0,78,0.00,CLR,SCT,0.00,0.7,WeatherDisplay:10.37,2013-08-18 04:40:00,
2013-08-17 18:50:00,71.5,63.9,29.89,East,95,9.0,18.0,77,0.00,CLR,SCT,0.00,0.1,WeatherDisplay:10.37,2013-08-18 04:50:00,
2013-08-17 19:01:00,71.5,63.2,29.90,East,90,10.0,17.0,75,0.00,CLR,SCT,0.00,0.0,WeatherDisplay:10.37,2013-08-18 05:01:00,
2013-08-17 19:10:00,71.3,63.7,29.90,East,87,7.0,20.0,77,0.00,CLR,SCT,0.00,0.0,WeatherDisplay:10.37,2013-08-18 05:10:00,
2013-08-17 19:20:00,71.2,62.9,29.90,ENE,78,8.0,20.0,75,0.00,CLR,SCT,0.00,0.0,WeatherDisplay:10.37,2013-08-18 05:20:00,
2013-08-17 19:30:00,70.9,63.0,29.90,East,81,9.0,16.0,76,0.00,CLR,SCT,0.00,0.0,WeatherDisplay:10.37,2013-08-18 05:30:00,
2013-08-17 19:40:00,70.7,63.9,29.90,ENE,68,10.0,20.0,79,0.00,CLR,SCT,0.00,0.0,WeatherDisplay:10.37,2013-08-18 05:40:00,
2013-08-17 19:50:00,70.4,63.6,29.91,East,85,7.0,20.0,79,0.00,CLR,SCT,0.00,0.0,WeatherDisplay:10.37,2013-08-18 05:50:00,
2013-08-17 20:01:00,70.6,64.1,29.91,East,85,12.0,17.0,80,0.00,CLR,SCT,0.00,0.0,WeatherDisplay:10.37,2013-08-18 06:01:00,
2013-08-17 20:10:00,70.3,63.8,29.91,East,79,10.0,17.0,80,0.00,FEW,SCT,0.00,0.0,WeatherDisplay:10.37,2013-08-18 06:10:00,
2013-08-17 20:20:00,70.2,63.7,29.92,ENE,75,7.0,20.0,80,0.00,FEW,SCT,0.00,0.0,WeatherDisplay:10.37,2013-08-18 06:20:00,
2013-08-17 20:30:00,70.0,63.9,29.92,East,82,8.0,18.0,81,0.00,FEW,SCT,0.00,0.0,WeatherDisplay:10.37,2013-08-18 06:30:00,
2013-08-17 20:40:00,69.8,62.6,29.92,ENE,77,7.0,15.0,78,0.00,FEW,SCT,0.00,0.0,WeatherDisplay:10.37,2013-08-18 06:40:00,
2013-08-17 20:50:00,69.8,63.0,29.93,ENE,74,8.0,15.0,79,0.00,FEW,SCT,0.00,0.0,WeatherDisplay:10.37,2013-08-18 06:50:00,
2013-08-17 21:01:00,69.6,62.4,29.94,East,81,10.0,17.0,78,0.00,FEW,SCT,0.00,0.0,WeatherDisplay:10.37,2013-08-18 07:01:00,
2013-08-17 21:10:00,69.5,62.7,29.93,East,85,8.0,15.0,79,0.00,FEW,SCT,0.00,0.0,WeatherDisplay:10.37,2013-08-18 07:10:00,
2013-08-17 21:20:00,69.3,62.1,29.94,East,84,9.0,17.0,78,0.00,FEW,SCT,0.00,0.0,WeatherDisplay:10.37,2013-08-18 07:20:00,
2013-08-17 21:30:00,69.2,62.0,29.94,ENE,78,8.0,16.0,78,0.00,FEW,SCT,0.00,0.0,WeatherDisplay:10.37,2013-08-18 07:30:00,
2013-08-17 21:40:00,69.3,61.4,29.94,East,85,10.0,22.0,76,0.00,FEW,SCT,0.00,0.0,WeatherDisplay:10.37,2013-08-18 07:40:00,
2013-08-17 21:50:00,69.4,60.8,29.94,East,80,7.0,14.0,74,0.00,FEW,SCT,0.00,0.0,WeatherDisplay:10.37,2013-08-18 07:50:00,
2013-08-17 22:01:00,69.5,60.8,29.94,ENE,76,7.0,14.0,74,0.00,FEW,SCT,0.00,0.0,WeatherDisplay:10.37,2013-08-18 08:01:00,
2013-08-17 22:10:00,69.6,61.7,29.93,ENE,75,9.0,17.0,76,0.00,CLR,SCT,0.00,0.0,WeatherDisplay:10.37,2013-08-18 08:10:00,
2013-08-17 22:20:00,69.4,61.9,29.94,East,85,9.0,24.0,77,0.00,CLR,SCT,0.00,0.0,WeatherDisplay:10.37,2013-08-18 08:20:00,
2013-08-17 22:31:00,69.3,61.4,29.94,East,90,7.0,15.0,76,0.00,CLR,SCT,0.00,0.0,WeatherDisplay:10.37,2013-08-18 08:31:00,
2013-08-17 22:40:00,69.4,60.4,29.94,East,89,7.0,12.0,73,0.00,CLR,SCT,0.00,0.0,WeatherDisplay:10.37,2013-08-18 08:40:00,
2013-08-17 22:50:00,69.2,60.9,29.94,ENE,75,7.0,14.0,75,0.00,CLR,SCT,0.00,0.0,WeatherDisplay:10.37,2013-08-18 08:50:00,
2013-08-17 23:01:00,69.2,61.3,29.94,East,85,6.0,13.0,76,0.00,CLR,SCT,0.00,0.0,WeatherDisplay:10.37,2013-08-18 09:01:00,
2013-08-17 23:10:00,69.0,60.0,29.95,ESE,108,7.0,14.0,73,0.00,CLR,SCT,0.00,0.0,WeatherDisplay:10.37,2013-08-18 09:10:00,
2013-08-17 23:20:00,68.9,59.9,29.95,East,91,5.0,7.0,73,0.00,CLR,SCT,0.00,0.0,WeatherDisplay:10.37,2013-08-18 09:20:00,
2013-08-17 23:30:00,68.7,60.8,29.94,ENE,67,6.0,13.0,76,0.00,CLR,SCT,0.00,0.0,WeatherDisplay:10.37,2013-08-18 09:30:00,
2013-08-17 23:40:00,68.7,59.7,29.94,East,87,2.0,12.0,73,0.00,CLR,SCT,0.00,0.0,WeatherDisplay:10.37,2013-08-18 09:40:00,
2013-08-17 23:50:00,68.6,58.9,29.94,East,81,6.0,14.0,71,0.00,CLR,SCT,0.00,0.0,WeatherDisplay:10.37,2013-08-18 09:50:00,